TimeCST,TemperatureF,Dew PointF,Humidity,Sea Level PressureIn,VisibilityMPH,Wind Direction,Wind SpeedMPH,Gust SpeedMPH,PrecipitationIn,Events,Conditions,WindDirDegrees,DateUTC
12:11 AM,66.2,62.6,88,30.06,10.0,SE,8.1,-,N/A,,Mostly Cloudy,130,2011-11-20 06:11:00
12:53 AM,66.9,63.0,87,30.08,9.0,SE,8.1,-,N/A,,Overcast,140,2011-11-20 06:53:00
1:53 AM,66.9,64.0,90,30.09,8.0,SE,6.9,-,N/A,,Overcast,140,2011-11-20 07:53:00
2:34 AM,68.0,64.4,88,30.08,7.0,SSE,9.2,-,N/A,,Overcast,150,2011-11-20 08:34:00
2:53 AM,68.0,64.9,90,30.09,6.0,SSE,8.1,-,N/A,,Overcast,150,2011-11-20 08:53:00
3:53 AM,68.0,66.0,93,30.09,4.0,SE,8.1,-,N/A,,Overcast,130,2011-11-20 09:53:00
4:20 AM,68.0,66.2,94,30.08,2.5,SE,10.4,-,N/A,,Overcast,140,2011-11-20 10:20:00
4:53 AM,66.9,66.0,97,30.10,1.8,SE,8.1,-,0.00,Rain,Light Rain,130,2011-11-20 10:53:00
5:53 AM,66.9,66.0,97,30.12,1.5,SE,8.1,-,0.01,,Overcast,130,2011-11-20 11:53:00
6:53 AM,66.9,66.0,97,30.13,1.0,SE,6.9,-,N/A,,Overcast,140,2011-11-20 12:53:00
7:53 AM,66.9,66.9,100,30.15,0.5,SE,11.5,-,N/A,Fog,Fog,140,2011-11-20 13:53:00
8:07 AM,66.2,66.2,100,30.14,0.2,SE,11.5,-,N/A,Fog,Fog,140,2011-11-20 14:07:00
8:41 AM,66.2,66.2,100,30.15,0.5,SE,11.5,-,N/A,Fog,Fog,140,2011-11-20 14:41:00
8:53 AM,66.9,66.9,100,30.17,0.8,SSE,13.8,-,N/A,,Overcast,150,2011-11-20 14:53:00
9:53 AM,68.0,68.0,100,30.19,1.0,SE,10.4,-,N/A,,Overcast,140,2011-11-20 15:53:00
10:32 AM,69.8,69.8,100,30.17,2.0,SE,13.8,-,N/A,,Overcast,140,2011-11-20 16:32:00
10:49 AM,71.6,69.8,94,30.17,3.0,SSE,12.7,-,N/A,,Overcast,150,2011-11-20 16:49:00
10:53 AM,71.1,70.0,96,30.18,4.0,SSE,10.4,-,N/A,,Overcast,150,2011-11-20 16:53:00
11:09 AM,73.4,69.8,88,30.16,5.0,SSE,11.5,-,N/A,,Overcast,150,2011-11-20 17:09:00
11:42 AM,77.0,69.8,78,30.15,7.0,SSE,13.8,19.6,N/A,,Mostly Cloudy,150,2011-11-20 17:42:00
11:53 AM,77.0,69.1,76,30.16,7.0,SSE,13.8,20.7,N/A,,Mostly Cloudy,160,2011-11-20 17:53:00
12:21 PM,78.8,69.8,74,30.14,8.0,SSE,11.5,-,N/A,,Mostly Cloudy,150,2011-11-20 18:21:00
12:53 PM,80.1,69.1,69,30.13,8.0,SE,12.7,-,N/A,,Partly Cloudy,140,2011-11-20 18:53:00
1:53 PM,81.0,66.9,62,30.12,10.0,SSE,11.5,-,N/A,,Mostly Cloudy,160,2011-11-20 19:53:00
2:53 PM,81.0,66.0,60,30.11,10.0,SSE,5.8,-,N/A,,Scattered Clouds,160,2011-11-20 20:53:00
3:53 PM,82.0,64.9,56,30.11,10.0,South,9.2,-,N/A,,Clear,180,2011-11-20 21:53:00
4:53 PM,78.1,66.9,68,30.12,10.0,SSE,6.9,-,N/A,,Clear,160,2011-11-20 22:53:00
5:53 PM,73.9,66.9,79,30.12,10.0,SE,8.1,-,N/A,,Clear,130,2011-11-20 23:53:00
6:53 PM,73.9,68.0,82,30.14,9.0,SE,11.5,-,N/A,,Mostly Cloudy,130,2011-11-21 00:53:00
7:53 PM,72.0,66.9,84,30.15,8.0,SE,6.9,-,N/A,,Mostly Cloudy,140,2011-11-21 01:53:00
8:53 PM,70.0,66.9,90,30.14,7.0,SE,8.1,-,N/A,,Clear,140,2011-11-21 02:53:00
9:53 PM,70.0,66.0,87,30.16,8.0,SSE,3.5,-,N/A,,Clear,150,2011-11-21 03:53:00
10:53 PM,66.9,66.0,97,30.16,6.0,SE,5.8,-,N/A,,Mostly Cloudy,140,2011-11-21 04:53:00
11:16 PM,68.0,66.2,94,30.15,7.0,SSE,4.6,-,N/A,,Overcast,150,2011-11-21 05:16:00
11:53 PM,70.0,66.9,90,30.16,8.0,SSE,5.8,-,N/A,,Overcast,160,2011-11-21 05:53:00